LROP Weather Reports


time (UTC)temp
F
wind
direction
speed
knots
gust
knots
rain 1hr
in
rain 24hr
in
rain mn
in
humidity
%
barometer
mb
20260902223302 70 10 8.7 0.0 0.00 0.00 0.00 73 1018.0
20260902221802 70 360 7.8 0.0 0.00 0.00 0.00 73 1018.0
20260902220302 70 360 7.8 0.0 0.00 0.00 0.00 73 1018.0
20260902214802 70 10 4.3 0.0 0.00 0.00 0.00 73 1018.0
20260902213301 70 10 4.3 0.0 0.00 0.00 0.00 73 1018.0
20260902211802 70 40 5.2 0.0 0.00 0.00 0.00 73 1018.0
20260902210302 70 40 5.2 0.0 0.00 0.00 0.00 73 1018.0
20260902204801 70 50 4.3 0.0 0.00 0.00 0.00 73 1017.0
20260902203302 70 50 4.3 0.0 0.00 0.00 0.00 73 1017.0
20260902201802 72 30 6.1 0.0 0.00 0.00 0.00 65 1017.0
20260902200317 72 30 6.1 0.0 0.00 0.00 0.00 65 1017.0
20260902194802 72 20 7.0 0.0 0.00 0.00 0.00 65 1018.0
20260902193302 72 20 7.0 0.0 0.00 0.00 0.00 65 1018.0
20260902191802 72 20 7.0 0.0 0.00 0.00 0.00 65 1017.0
20260902190302 72 20 7.0 0.0 0.00 0.00 0.00 65 1017.0
20260902184802 73 10 7.8 0.0 0.00 0.00 0.00 61 1017.0
20260902183301 73 10 7.8 0.0 0.00 0.00 0.00 61 1017.0
20260902181802 73 360 12.2 0.0 0.00 0.00 0.00 61 1017.0
20260902180301 73 360 12.2 0.0 0.00 0.00 0.00 61 1017.0
20260902174802 75 360 13.9 0.0 0.00 0.00 0.00 57 1017.0
20260902173302 75 360 13.9 0.0 0.00 0.00 0.00 57 1017.0
20260902171802 79 360 11.3 0.0 0.00 0.00 0.00 58 1017.0
20260902170302 79 360 11.3 0.0 0.00 0.00 0.00 58 1017.0
20260902164914 84 30 7.8 0.0 0.00 0.00 0.00 40 1016.0
20260902163302 84 30 7.8 0.0 0.00 0.00 0.00 40 1016.0
20260902161801 84 40 9.6 0.0 0.00 0.00 0.00 40 1016.0
20260902160313 84 40 9.6 0.0 0.00 0.00 0.00 40 1016.0
20260902154803 86 100 4.3 0.0 0.00 0.00 0.00 40 1016.0
20260902153301 86 100 4.3 0.0 0.00 0.00 0.00 40 1016.0
20260902151802 88 1.7 0.0 0.00 0.00 0.00 38 1016.0
20260902150302 88 1.7 0.0 0.00 0.00 0.00 38 1016.0
20260902144802 88 140 4.3 0.0 0.00 0.00 0.00 35 1016.0
20260902143303 88 140 4.3 0.0 0.00 0.00 0.00 35 1016.0
20260902141802 88 160 4.3 0.0 0.00 0.00 0.00 35 1017.0
20260902140302 88 160 4.3 0.0 0.00 0.00 0.00 35 1017.0
20260902134802 90 2.6 0.0 0.00 0.00 0.00 36 1017.0
20260902133301 90 2.6 0.0 0.00 0.00 0.00 36 1017.0
20260902131802 86 4.3 0.0 0.00 0.00 0.00 38 1017.0
20260902130302 86 4.3 0.0 0.00 0.00 0.00 38 1017.0
20260902124803 88 130 6.1 0.0 0.00 0.00 0.00 35 1018.0
20260902123302 88 130 6.1 0.0 0.00 0.00 0.00 35 1018.0
20260902121802 86 70 6.1 0.0 0.00 0.00 0.00 35 1018.0
20260902120302 86 70 6.1 0.0 0.00 0.00 0.00 35 1018.0
20260902114802 86 110 7.0 0.0 0.00 0.00 0.00 35 1018.0
20260902113302 86 110 7.0 0.0 0.00 0.00 0.00 35 1018.0
20260902111802 86 110 8.7 0.0 0.00 0.00 0.00 38 1018.0
20260902110303 86 110 8.7 0.0 0.00 0.00 0.00 38 1018.0
20260902104802 86 90 9.6 0.0 0.00 0.00 0.00 38 1019.0
20260902103301 86 90 9.6 0.0 0.00 0.00 0.00 38 1019.0
20260902101802 84 70 9.6 0.0 0.00 0.00 0.00 43 1019.0
20260902100308 84 70 9.6 0.0 0.00 0.00 0.00 43 1019.0
20260902094802 82 80 9.6 0.0 0.00 0.00 0.00 45 1019.0
20260902093302 82 80 9.6 0.0 0.00 0.00 0.00 45 1019.0
20260902091802 82 90 11.3 0.0 0.00 0.00 0.00 45 1019.0
20260902090401 81 80 13.0 0.0 0.00 0.00 0.00 48 1019.0
20260902084802 81 80 13.0 0.0 0.00 0.00 0.00 48 1019.0
20260902083302 81 80 13.0 0.0 0.00 0.00 0.00 48 1019.0
20260902081802 81 70 12.2 0.0 0.00 0.00 0.00 51 1019.0
20260902080302 81 70 12.2 0.0 0.00 0.00 0.00 51 1019.0
20260902074838 79 70 13.9 0.0 0.00 0.00 0.00 51 1019.0
20260902073302 79 70 13.9 0.0 0.00 0.00 0.00 51 1019.0
20260902071802 77 80 13.0 0.0 0.00 0.00 0.00 57 1019.0
20260902070301 77 80 13.0 0.0 0.00 0.00 0.00 57 1019.0
20260902064802 75 80 8.7 0.0 0.00 0.00 0.00 61 1019.0
20260902063303 75 80 8.7 0.0 0.00 0.00 0.00 61 1019.0
20260902061803 75 80 7.8 0.0 0.00 0.00 0.00 61 1019.0
20260902060302 75 80 7.8 0.0 0.00 0.00 0.00 61 1019.0
20260902054801 72 70 8.7 0.0 0.00 0.00 0.00 69 1019.0
20260902053302 72 70 8.7 0.0 0.00 0.00 0.00 69 1019.0
20260902051802 70 70 8.7 0.0 0.00 0.00 0.00 73 1019.0
20260902050303 70 70 8.7 0.0 0.00 0.00 0.00 73 1019.0
20260902044802 70 80 6.1 0.0 0.00 0.00 0.00 73 1019.0
20260902043302 70 80 6.1 0.0 0.00 0.00 0.00 73 1019.0
20260902041802 70 60 6.1 0.0 0.00 0.00 0.00 73 1019.0
20260902040306 70 60 6.1 0.0 0.00 0.00 0.00 73 1019.0
20260902034802 70 40 7.0 0.0 0.00 0.00 0.00 73 1018.0
20260902033303 70 40 7.0 0.0 0.00 0.00 0.00 73 1018.0
20260902031802 70 90 4.3 0.0 0.00 0.00 0.00 73 1019.0
20260902030302 70 90 4.3 0.0 0.00 0.00 0.00 73 1019.0
20260902024802 70 50 5.2 0.0 0.00 0.00 0.00 73 1018.0
20260902023302 70 50 5.2 0.0 0.00 0.00 0.00 73 1018.0
20260902021803 70 80 6.1 0.0 0.00 0.00 0.00 73 1018.0
20260902020302 70 80 6.1 0.0 0.00 0.00 0.00 73 1018.0
20260902014801 70 70 7.0 0.0 0.00 0.00 0.00 73 1018.0
20260902013301 70 70 7.0 0.0 0.00 0.00 0.00 73 1018.0
20260902011801 70 50 6.1 0.0 0.00 0.00 0.00 73 1018.0
20260902010302 70 50 6.1 0.0 0.00 0.00 0.00 73 1018.0
20260902004801 70 70 7.0 0.0 0.00 0.00 0.00 73 1018.0
20260902003301 70 70 7.0 0.0 0.00 0.00 0.00 73 1018.0
20260902001803 72 60 7.0 0.0 0.00 0.00 0.00 69 1018.0
20260902000308 72 60 7.0 0.0 0.00 0.00 0.00 69 1018.0
20260901234804 72 70 6.1 0.0 0.00 0.00 0.00 69 1018.0
20260901233302 72 70 6.1 0.0 0.00 0.00 0.00 69 1018.0
20260901231802 72 70 6.1 0.0 0.00 0.00 0.00 69 1018.0
20260901230318 72 70 6.1 0.0 0.00 0.00 0.00 69 1018.0
20260901224802 73 70 7.8 0.0 0.00 0.00 0.00 61 1018.0